Rexburg, ID

5:23 AM MST on February 20, 2018 (GMT -0700)
Rexburg-Madison County

Weather History for KRXE - August, 2013

Change the Weather History Date:

Thursday, August 22, 2013

  Actual Average Record
Temperature  
Mean Temperature 68 °F 65 °F  
Max Temperature 82 °F 83 °F 92 °F (2006)
Min Temperature 54 °F 48 °F 41 °F (2008)
Degree Days  
Heating Degree Days 0 2  
Month to date heating degree days 0 17  
Since 1 June heating degree days 117 219  
Since 1 July heating degree days 0 47  
Cooling Degree Days 3 2  
Month to date cooling degree days 116 74  
Year to date cooling degree days 370 188  
Since 1 June cooling degree days 368 184  
Growing Degree Days 20 (Base 50)    
Moisture  
Dew Point 48 °F    
Average Humidity 52    
Maximum Humidity 83    
Minimum Humidity 21    
Precipitation  
Precipitation T in 0.03 in 0.27 in (2004)
Month to date precipitation T 0.62  
Year to date precipitation 5.12 8.58  
Sea Level Pressure  
Sea Level Pressure 30.00 in    
Wind  
Wind Speed 7 mph (SW)    
Max Wind Speed 16 mph    
Max Gust Speed 23 mph    
Visibility 10 miles    
Events Thunderstorm    
T = Trace of Precipitation, MM = Missing Value Source: NWS Daily Summary

Daily Weather History Graph

Daily Weather History Graph

Search for Another Location

Airport or City:

Trip Planner

Search our weather history database for the weather conditions in past years. The results will help you decide how hot, cold, wet, or windy it might be!

Date:

Astronomy

Aug. 22, 2013 Rise Set
Actual Time 6:39 AM MDT 8:19 PM MDT
Civil Twilight 6:09 AM MDT 8:49 PM MDT
Nautical Twilight 5:32 AM MDT 9:26 PM MDT
Astronomical Twilight 4:52 AM MDT 10:06 PM MDT
Moon 8:58 PM MDT (8/22) 8:38 AM MDT (8/22)
Length of Visible Light 14h 40m
Length of Day
13h 39m
Waning Gibbous, 96% of the Moon is Illuminated
Aug 22
Waning Gibbous
Aug 28
Last Quarter
Sep 5
New
Sep 12
First Quarter
Sep 19
Full

Hourly Weather History & Observations

Time (MDT) Temp. Dew Point Humidity Pressure Visibility Wind Dir Wind Speed Gust Speed Precip Events Conditions
12:53 AM 64.0 °F 52.0 °F 65% 30.02 in 10.0 mi Calm Calm - N/A   Clear
1:53 AM 62.1 °F 52.0 °F 70% 30.03 in 10.0 mi Calm Calm - N/A   Clear
2:53 AM 60.1 °F 51.1 °F 72% 30.04 in 10.0 mi Calm Calm - N/A   Clear
3:53 AM 57.9 °F 51.1 °F 78% 30.05 in 10.0 mi Calm Calm - N/A   Clear
4:53 AM 57.0 °F 51.1 °F 81% 30.06 in 10.0 mi Calm Calm - N/A   Clear
5:53 AM 55.0 °F 50.0 °F 83% 30.06 in 10.0 mi Calm Calm - N/A   Clear
6:53 AM 55.0 °F 48.9 °F 80% 30.07 in 10.0 mi East 3.5 mph - N/A   Clear
7:53 AM 55.9 °F 48.9 °F 77% 30.09 in 10.0 mi North 3.5 mph - N/A   Clear
8:53 AM 62.1 °F 51.1 °F 67% 30.09 in 10.0 mi NE 3.5 mph - N/A   Clear
9:53 AM 66.9 °F 53.1 °F 61% 30.08 in 10.0 mi Calm Calm - N/A   Clear
10:53 AM 73.9 °F 52.0 °F 46% 30.06 in 10.0 mi SSW 3.5 mph - N/A   Clear
11:53 AM 80.1 °F 48.9 °F 34% 30.03 in 10.0 mi South 5.8 mph - N/A   Clear
12:53 PM 82.0 °F 48.0 °F 30% 30.01 in 10.0 mi SW 10.4 mph - N/A   Clear
1:53 PM 84.0 °F 46.0 °F 26% 29.99 in 10.0 mi WSW 9.2 mph - N/A   Clear
2:53 PM 84.9 °F 44.1 °F 24% 29.97 in 10.0 mi SW 10.4 mph - N/A   Clear
3:53 PM 84.9 °F 44.1 °F 24% 29.94 in 10.0 mi SW 10.4 mph - N/A   Clear
4:53 PM 86.0 °F 45.0 °F 24% 29.91 in 10.0 mi SSW 9.2 mph - N/A   Clear
5:53 PM 86.0 °F 43.0 °F 22% 29.89 in 10.0 mi SSW 8.1 mph - N/A   Clear
6:53 PM 86.0 °F 43.0 °F 22% 29.87 in 10.0 mi WSW 6.9 mph - N/A   Clear
7:53 PM 82.0 °F 46.9 °F 29% 29.86 in 10.0 mi Calm Calm - N/A   Clear
8:53 PM 77.0 °F 48.9 °F 37% 29.88 in 10.0 mi Calm Calm - N/A   Clear
9:53 PM 75.0 °F 46.0 °F 36% 29.91 in 10.0 mi SW 16.1 mph 21.9 mph N/A   Partly Cloudy
10:23 PM 75.2 °F 42.8 °F 31% 30.04 in 6.0 mi WSW 19.6 mph 26.5 mph N/A Thunderstorm Haze